SERT 2

Last updated on Tue Jul 01 2025 00:02:13 GMT+0000 (Coordinated Universal Time)

1 04327U 70009A 25181.49947492 -.00000004 00000+0 50779-4 0 9993 2 04327 99.2398 133.8450 0005862 89.0583 19.3098 13.58697156745643
UTC large
Height (km)
Speed (km/s)
/
Latitude / Longitude
Inclination (degrees)
Orbital Period (minutes)
Azimuth
Elevation
Range (km)
Doppler Factor

Next 0 passes for location: London (51.5072 / 0.1276)

Sorry there are no passes over London.